Time,TemperatureF,DewpointF,PressureIn,WindDirection,WindDirectionDegrees,WindSpeedMPH,WindSpeedGustMPH,Humidity,HourlyPrecipIn,Conditions,Clouds,dailyrainin,SoftwareType,DateUTC
2013-08-11 01:39:00,61.0,-99.9,-100.00,ENE,75,5.0,16.0,-999,0.00,,,-99.99,,2013-08-11 07:39:00,
2013-08-11 01:47:00,61.0,-99.9,-100.00,ENE,75,5.0,16.0,-999,0.00,,,-99.99,,2013-08-11 07:47:00,
2013-08-11 01:57:00,61.0,-99.9,-100.00,ENE,75,5.0,16.0,-999,0.00,,,-99.99,,2013-08-11 07:57:00,
2013-08-11 02:00:00,60.0,-99.9,-100.00,ESE,102,5.0,14.0,-999,0.00,,,-99.99,,2013-08-11 08:00:00,
2013-08-11 02:50:00,60.0,-99.9,-100.00,ESE,102,5.0,14.0,-999,0.00,,,-99.99,,2013-08-11 08:50:00,
2013-08-11 03:00:00,60.0,-99.9,-100.00,East,101,7.0,16.0,-999,0.00,,,-99.99,,2013-08-11 09:00:00,
2013-08-11 03:46:00,60.0,-99.9,-100.00,East,101,7.0,16.0,-999,0.00,,,-99.99,,2013-08-11 09:46:00,
2013-08-11 04:00:00,52.0,-99.9,-100.00,East,89,4.0,7.0,-999,0.00,,,-99.99,,2013-08-11 10:00:00,
2013-08-11 04:38:00,52.0,-99.9,-100.00,East,89,4.0,7.0,-999,0.00,,,-99.99,,2013-08-11 10:38:00,
2013-08-11 04:48:00,52.0,-99.9,-100.00,East,89,4.0,7.0,-999,0.00,,,-99.99,,2013-08-11 10:48:00,
2013-08-11 05:00:00,50.0,-99.9,-100.00,East,88,3.0,10.0,-999,0.00,,,-99.99,,2013-08-11 11:00:00,
2013-08-11 05:40:00,50.0,-99.9,-100.00,East,88,3.0,10.0,-999,0.00,,,-99.99,,2013-08-11 11:40:00,
2013-08-11 06:00:00,51.0,-99.9,-100.00,East,87,2.0,6.0,-999,0.00,,,-99.99,,2013-08-11 12:00:00,
2013-08-11 06:47:00,51.0,-99.9,-100.00,East,87,2.0,6.0,-999,0.00,,,-99.99,,2013-08-11 12:47:00,
2013-08-11 06:57:00,51.0,-99.9,-100.00,East,87,2.0,6.0,-999,0.00,,,-99.99,,2013-08-11 12:57:00,
2013-08-11 07:00:00,50.0,-99.9,-100.00,East,94,2.0,5.0,-999,0.00,,,-99.99,,2013-08-11 13:00:00,
2013-08-11 07:42:00,50.0,-99.9,-100.00,East,94,2.0,5.0,-999,0.00,,,-99.99,,2013-08-11 13:42:00,
2013-08-11 07:49:00,50.0,-99.9,-100.00,East,94,2.0,5.0,-999,0.00,,,-99.99,,2013-08-11 13:49:00,
2013-08-11 07:59:00,50.0,-99.9,-100.00,East,94,2.0,5.0,-999,0.00,,,-99.99,,2013-08-11 13:59:00,
2013-08-11 08:00:00,49.0,-99.9,-100.00,East,87,3.0,6.0,-999,0.00,,,-99.99,,2013-08-11 14:00:00,
2013-08-11 08:50:00,49.0,-99.9,-100.00,East,87,3.0,6.0,-999,0.00,,,-99.99,,2013-08-11 14:50:00,
2013-08-11 08:58:00,49.0,-99.9,-100.00,East,87,3.0,6.0,-999,0.00,,,-99.99,,2013-08-11 14:58:00,
2013-08-11 09:00:00,62.0,-99.9,-100.00,North,9,3.0,11.0,-999,0.00,,,-99.99,,2013-08-11 15:00:00,
2013-08-11 09:49:00,62.0,-99.9,-100.00,North,9,3.0,11.0,-999,0.00,,,-99.99,,2013-08-11 15:49:00,
2013-08-11 10:00:00,67.0,-99.9,-100.00,WNW,294,5.0,13.0,-999,0.00,,,-99.99,,2013-08-11 16:00:00,
2013-08-11 10:41:00,67.0,-99.9,-100.00,WNW,294,5.0,13.0,-999,0.00,,,-99.99,,2013-08-11 16:41:00,
2013-08-11 10:48:00,67.0,-99.9,-100.00,WNW,294,5.0,13.0,-999,0.00,,,-99.99,,2013-08-11 16:48:00,
2013-08-11 11:00:00,69.0,-99.9,-100.00,WNW,296,7.0,15.0,-999,0.00,,,-99.99,,2013-08-11 17:00:00,
2013-08-11 11:48:00,69.0,-99.9,-100.00,WNW,296,7.0,15.0,-999,0.00,,,-99.99,,2013-08-11 17:48:00,
2013-08-11 11:59:00,69.0,-99.9,-100.00,WNW,296,7.0,15.0,-999,0.00,,,-99.99,,2013-08-11 17:59:00,
2013-08-11 12:00:00,68.0,-99.9,-100.00,WNW,293,7.0,18.0,-999,0.00,,,-99.99,,2013-08-11 18:00:00,
2013-08-11 12:41:00,68.0,-99.9,-100.00,WNW,293,7.0,18.0,-999,0.00,,,-99.99,,2013-08-11 18:41:00,
2013-08-11 12:51:00,68.0,-99.9,-100.00,WNW,293,7.0,18.0,-999,0.00,,,-99.99,,2013-08-11 18:51:00,
2013-08-11 12:58:00,68.0,-99.9,-100.00,WNW,293,7.0,18.0,-999,0.00,,,-99.99,,2013-08-11 18:58:00,
2013-08-11 13:00:00,66.0,-99.9,-100.00,WNW,285,6.0,20.0,-999,0.00,,,-99.99,,2013-08-11 19:00:00,
2013-08-11 13:36:00,66.0,-99.9,-100.00,WNW,285,6.0,20.0,-999,0.00,,,-99.99,,2013-08-11 19:36:00,
2013-08-11 13:53:00,66.0,-99.9,-100.00,WNW,285,6.0,20.0,-999,0.00,,,-99.99,,2013-08-11 19:53:00,
2013-08-11 14:00:00,68.0,-99.9,-100.00,WNW,294,8.0,20.0,-999,0.00,,,-99.99,,2013-08-11 20:00:00,
2013-08-11 14:40:00,68.0,-99.9,-100.00,WNW,294,8.0,20.0,-999,0.00,,,-99.99,,2013-08-11 20:40:00,
2013-08-11 14:51:00,68.0,-99.9,-100.00,WNW,294,8.0,20.0,-999,0.00,,,-99.99,,2013-08-11 20:51:00,
2013-08-11 15:00:00,70.0,-99.9,-100.00,WNW,296,7.0,17.0,-999,0.00,,,-99.99,,2013-08-11 21:00:00,
2013-08-11 15:51:00,70.0,-99.9,-100.00,WNW,296,7.0,17.0,-999,0.00,,,-99.99,,2013-08-11 21:51:00,
2013-08-11 15:59:00,70.0,-99.9,-100.00,WNW,296,7.0,17.0,-999,0.00,,,-99.99,,2013-08-11 21:59:00,
2013-08-11 16:00:00,72.0,-99.9,-100.00,WNW,298,7.0,18.0,-999,0.00,,,-99.99,,2013-08-11 22:00:00,
2013-08-11 16:38:00,72.0,-99.9,-100.00,WNW,298,7.0,18.0,-999,0.00,,,-99.99,,2013-08-11 22:38:00,
2013-08-11 16:59:00,72.0,-99.9,-100.00,WNW,298,7.0,18.0,-999,0.00,,,-99.99,,2013-08-11 22:59:00,
2013-08-11 17:00:00,74.0,-99.9,-100.00,WNW,291,6.0,15.0,-999,0.00,,,-99.99,,2013-08-11 23:00:00,
2013-08-11 17:50:00,74.0,-99.9,-100.00,WNW,291,6.0,15.0,-999,0.00,,,-99.99,,2013-08-11 23:50:00,
2013-08-11 18:00:00,75.0,-99.9,-100.00,WNW,296,5.0,12.0,-999,0.00,,,-99.99,,2013-08-12 00:00:00,
2013-08-11 18:38:00,75.0,-99.9,-100.00,WNW,296,5.0,12.0,-999,0.00,,,-99.99,,2013-08-12 00:38:00,
2013-08-11 18:53:00,75.0,-99.9,-100.00,WNW,296,5.0,12.0,-999,0.00,,,-99.99,,2013-08-12 00:53:00,
2013-08-11 18:59:00,75.0,-99.9,-100.00,WNW,296,5.0,12.0,-999,0.00,,,-99.99,,2013-08-12 00:59:00,
2013-08-11 19:40:00,73.0,-99.9,-100.00,WNW,297,5.0,15.0,-999,0.00,,,-99.99,,2013-08-12 01:40:00,
2013-08-11 20:00:00,65.0,-99.9,-100.00,NW,305,4.0,15.0,-999,0.00,,,-99.99,,2013-08-12 02:00:00,
2013-08-11 20:52:00,65.0,-99.9,-100.00,NW,305,4.0,15.0,-999,0.00,,,-99.99,,2013-08-12 02:52:00,
2013-08-11 21:00:00,62.0,-99.9,-100.00,ESE,110,5.0,13.0,-999,0.00,,,-99.99,,2013-08-12 03:00:00,
2013-08-11 21:40:00,62.0,-99.9,-100.00,ESE,110,5.0,13.0,-999,0.00,,,-99.99,,2013-08-12 03:40:00,
2013-08-11 21:49:00,62.0,-99.9,-100.00,ESE,110,5.0,13.0,-999,0.00,,,-99.99,,2013-08-12 03:49:00,
2013-08-11 22:00:00,60.0,-99.9,-100.00,ESE,108,4.0,9.0,-999,0.00,,,-99.99,,2013-08-12 04:00:00,
2013-08-11 22:33:00,60.0,-99.9,-100.00,ESE,108,4.0,9.0,-999,0.00,,,-99.99,,2013-08-12 04:33:00,
2013-08-11 22:43:00,60.0,-99.9,-100.00,ESE,108,4.0,9.0,-999,0.00,,,-99.99,,2013-08-12 04:43:00,
2013-08-11 22:53:00,60.0,-99.9,-100.00,ESE,108,4.0,9.0,-999,0.00,,,-99.99,,2013-08-12 04:53:00,
2013-08-11 23:00:00,60.0,-99.9,-100.00,East,88,3.0,12.0,-999,0.00,,,-99.99,,2013-08-12 05:00:00,
2013-08-11 23:32:00,60.0,-99.9,-100.00,East,88,3.0,12.0,-999,0.00,,,-99.99,,2013-08-12 05:32:00,
2013-08-11 23:43:00,60.0,-99.9,-100.00,East,88,3.0,12.0,-999,0.00,,,-99.99,,2013-08-12 05:43:00,
2013-08-11 23:52:00,60.0,-99.9,-100.00,East,88,3.0,12.0,-999,0.00,,,-99.99,,2013-08-12 05:52:00,